Back to catalog

DELTA 1 DEB

AliveLEO
NORAD 7183·DEBRIS·🇺🇸 United States

Launched Nov 6, 1973 from Vandenberg Space Force Base

Loading…

Next Passes (next 24 hours)

TLE

FreshSource: Space-Track

Epoch: Sep 14, 2026, 13:58 UTC

1 07183U 73086EU  26257.58232199  .00000146  00000-0  95335-3 0  9993
2 07183 102.3858 296.5526 0125883  90.4320  75.2924 12.70208824436015

Track DELTA 1 DEB in real time with AllMySat

Download on the App Store